Location: Austin
(30.3000°N, 97.7500°W)
Time: 22:27:29
(UTC-05:00)

Cosmos 841 Rocket - Pass Details

Date: 05 September 2024
Orbit: 745 x 768 km, 74.0° (Epoch: 14 September)

Event Time Altitude Azimuth Distance (km) Brightness Sun altitude
Rises 20:11:48 0° 176° (S) 3,214 6.6 -5.9°
Reaches altitude 10° 20:14:18 10° 169° (SSE) 2,289 5.7 -6.4°
Maximum altitude 20:19:06 39° 101° (E) 1,128 3.9 -7.4°
Drops below altitude 10° 20:23:54 10° 33° (NNE) 2,287 5.8 -8.4°
Sets 20:26:23 0° 26° (NNE) 3,212 6.6 -9.0°
